| time (UTC) | temp F | wind direction | speed MPH | gust MPH | rain 1hr in | rain 24hr in | rain mn in | humidity % | barometer mb |
| 20260509031802 | 53 | 0 | 0.0 | 0.0 | 0.00 | 0.00 | 0.00 | 89 | 1008.9 |
| 20260509031302 | 53 | 0 | 0.0 | 0.0 | 0.00 | 0.00 | 0.00 | 89 | 1008.9 |
| 20260509030803 | 53 | 0 | 0.0 | 0.0 | 0.00 | 0.00 | 0.00 | 88 | 1009.0 |
| 20260509030303 | 53 | 0 | 0.0 | 0.0 | 0.00 | 0.00 | 0.00 | 87 | 1008.9 |
| 20260509025306 | 54 | 0 | 0.0 | 0.0 | 0.00 | 0.00 | 0.00 | 88 | 1008.8 |
| 20260509024802 | 54 | 0 | 0.0 | 0.0 | 0.00 | 0.00 | 0.00 | 87 | 1008.6 |
| 20260509023802 | 55 | 0 | 0.0 | 0.0 | 0.00 | 0.00 | 0.00 | 85 | 1008.5 |
| 20260509023302 | 55 | 0 | 0.0 | 0.0 | 0.00 | 0.00 | 0.00 | 86 | 1008.4 |
| 20260509022802 | 55 | 0 | 0.0 | 0.0 | 0.00 | 0.00 | 0.00 | 86 | 1008.5 |
| 20260509022306 | 56 | 0 | 0.0 | 0.0 | 0.00 | 0.00 | 0.00 | 84 | 1008.5 |
| 20260509021801 | 56 | 0 | 0.0 | 0.0 | 0.00 | 0.00 | 0.00 | 84 | 1008.3 |
| 20260509021303 | 56 | 0 | 0.0 | 1.0 | 0.00 | 0.00 | 0.00 | 83 | 1008.2 |
| 20260509020802 | 57 | 0 | 0.0 | 2.0 | 0.00 | 0.00 | 0.00 | 83 | 1008.3 |
| 20260509020302 | 58 | 0 | 1.0 | 2.0 | 0.00 | 0.00 | 0.00 | 83 | 1008.3 |
| 20260509015803 | 58 | 0 | 1.0 | 2.0 | 0.00 | 0.00 | 0.00 | 84 | 1008.3 |
| 20260509015306 | 58 | 0 | 0.0 | 0.0 | 0.00 | 0.00 | 0.00 | 83 | 1008.3 |
| 20260509014802 | 58 | 0 | 0.0 | 0.0 | 0.00 | 0.00 | 0.00 | 81 | 1008.1 |
| 20260509014303 | 59 | 0 | 0.0 | 0.0 | 0.00 | 0.00 | 0.00 | 81 | 1008.1 |
| 20260509013302 | 60 | 0 | 0.0 | 0.0 | 0.00 | 0.00 | 0.00 | 79 | 1008.0 |
| 20260509012802 | 61 | 0 | 0.0 | 0.0 | 0.00 | 0.00 | 0.00 | 79 | 1007.9 |
| 20260509012306 | 62 | 0 | 0.0 | 0.0 | 0.00 | 0.00 | 0.00 | 77 | 1007.9 |
| 20260509011802 | 63 | 0 | 0.0 | 0.0 | 0.00 | 0.00 | 0.00 | 76 | 1007.8 |
| 20260509011303 | 64 | 0 | 0.0 | 1.0 | 0.00 | 0.00 | 0.00 | 75 | 1007.7 |
| 20260509010801 | 64 | 0 | 0.0 | 3.0 | 0.00 | 0.00 | 0.00 | 74 | 1007.7 |
| 20260509010302 | 64 | 0 | 1.0 | 4.0 | 0.00 | 0.00 | 0.00 | 74 | 1007.6 |
| 20260509005802 | 65 | 0 | 2.0 | 4.0 | 0.00 | 0.00 | 0.00 | 74 | 1007.6 |
| 20260509005306 | 65 | 350 | 2.0 | 4.0 | 0.00 | 0.00 | 0.00 | 73 | 1007.4 |
| 20260509004801 | 65 | 355 | 2.0 | 5.0 | 0.00 | 0.00 | 0.00 | 73 | 1007.3 |
| 20260509004302 | 65 | 326 | 3.0 | 5.0 | 0.00 | 0.00 | 0.00 | 72 | 1007.2 |
| 20260509003802 | 66 | 334 | 2.0 | 5.0 | 0.00 | 0.00 | 0.00 | 72 | 1007.1 |
| 20260509003302 | 66 | 344 | 2.0 | 5.0 | 0.00 | 0.00 | 0.00 | 71 | 1007.1 |
| 20260509002802 | 67 | 351 | 4.0 | 5.0 | 0.00 | 0.00 | 0.00 | 71 | 1006.9 |
| 20260509002305 | 67 | 357 | 2.0 | 6.0 | 0.00 | 0.00 | 0.00 | 70 | 1006.7 |
| 20260509001302 | 68 | 330 | 3.0 | 9.0 | 0.00 | 0.00 | 0.00 | 70 | 1006.8 |
| 20260509000803 | 68 | 0 | 2.0 | 7.0 | 0.00 | 0.00 | 0.00 | 71 | 1006.8 |
| 20260509000303 | 69 | 0 | 4.0 | 7.0 | 0.00 | 0.00 | 0.00 | 70 | 1006.8 |
| 20260508235801 | 69 | 340 | 4.0 | 7.0 | 0.00 | 0.00 | 0.00 | 68 | 1006.7 |
| 20260508235306 | 69 | 340 | 4.0 | 6.0 | 0.00 | 0.00 | 0.00 | 69 | 1006.7 |
| 20260508234303 | 69 | 324 | 3.0 | 6.0 | 0.00 | 0.00 | 0.00 | 70 | 1006.7 |
| 20260508233802 | 69 | 355 | 2.0 | 5.0 | 0.00 | 0.00 | 0.00 | 69 | 1006.7 |
| 20260508233303 | 69 | 324 | 2.0 | 4.0 | 0.00 | 0.00 | 0.00 | 68 | 1006.7 |
| 20260508232302 | 68 | 290 | 2.0 | 4.0 | 0.00 | 0.00 | 0.00 | 71 | 1006.8 |
| 20260508231801 | 68 | 300 | 1.0 | 3.0 | 0.00 | 0.00 | 0.00 | 73 | 1006.6 |
| 20260508231302 | 67 | 276 | 0.0 | 4.0 | 0.00 | 0.00 | 0.00 | 73 | 1006.8 |
| 20260508230802 | 67 | 255 | 2.0 | 4.0 | 0.00 | 0.00 | 0.00 | 73 | 1006.8 |
| 20260508230303 | 66 | 324 | 2.0 | 4.0 | 0.00 | 0.00 | 0.00 | 74 | 1007.1 |
| 20260508225804 | 66 | 200 | 2.0 | 3.0 | 0.00 | 0.00 | 0.00 | 74 | 1006.9 |
| 20260508224802 | 65 | 200 | 0.0 | 4.0 | 0.00 | 0.00 | 0.00 | 73 | 1006.8 |
| 20260508224303 | 65 | 141 | 1.0 | 3.0 | 0.00 | 0.00 | 0.00 | 75 | 1006.7 |
| 20260508223802 | 65 | 30 | 1.0 | 3.0 | 0.00 | 0.00 | 0.00 | 74 | 1006.8 |
| 20260508221302 | 65 | 35 | 3.0 | 10.0 | 0.00 | 0.00 | 0.00 | 73 | 1007.1 |
| 20260508220802 | 65 | 14 | 6.0 | 10.0 | 0.00 | 0.00 | 0.00 | 76 | 1006.9 |
| 20260508220303 | 65 | 0 | 6.0 | 12.0 | 0.00 | 0.00 | 0.00 | 74 | 1006.9 |
| 20260508215802 | 65 | 3 | 7.0 | 12.0 | 0.00 | 0.00 | 0.00 | 74 | 1007.1 |
| 20260508215306 | 65 | 326 | 9.0 | 15.0 | 0.00 | 0.00 | 0.00 | 75 | 1007.3 |
| 20260508214301 | 65 | 0 | 9.0 | 12.0 | 0.00 | 0.00 | 0.00 | 77 | 1007.4 |
| 20260508213302 | 65 | 344 | 8.0 | 13.0 | 0.00 | 0.00 | 0.00 | 78 | 1007.6 |
| 20260508212802 | 65 | 351 | 9.0 | 13.0 | 0.00 | 0.00 | 0.00 | 77 | 1007.7 |
| 20260508212306 | 66 | 345 | 8.0 | 16.0 | 0.00 | 0.00 | 0.00 | 78 | 1007.6 |
| 20260508211804 | 66 | 0 | 9.0 | 16.0 | 0.00 | 0.00 | 0.00 | 77 | 1007.6 |
| 20260508211302 | 66 | 0 | 8.0 | 13.0 | 0.00 | 0.00 | 0.00 | 79 | 1007.8 |
| 20260508210802 | 65 | 1 | 8.0 | 13.0 | 0.00 | 0.00 | 0.00 | 80 | 1007.8 |
| 20260508210302 | 65 | 344 | 8.0 | 14.0 | 0.00 | 0.00 | 0.00 | 78 | 1007.9 |
| 20260508205802 | 66 | 353 | 8.0 | 14.0 | 0.00 | 0.00 | 0.00 | 77 | 1008.0 |
| 20260508205305 | 67 | 314 | 9.0 | 13.0 | 0.00 | 0.00 | 0.00 | 75 | 1008.1 |
| 20260508204802 | 68 | 3 | 9.0 | 13.0 | 0.00 | 0.00 | 0.00 | 74 | 1008.2 |
| 20260508204302 | 69 | 305 | 4.0 | 9.0 | 0.00 | 0.00 | 0.00 | 73 | 1008.1 |
| 20260508203802 | 69 | 227 | 3.0 | 5.0 | 0.00 | 0.00 | 0.00 | 72 | 1008.1 |
| 20260508203301 | 69 | 316 | 1.0 | 7.0 | 0.00 | 0.00 | 0.00 | 74 | 1008.1 |
| 20260508202802 | 68 | 305 | 4.0 | 9.0 | 0.00 | 0.00 | 0.00 | 73 | 1008.0 |
| 20260508202306 | 68 | 337 | 3.0 | 11.0 | 0.00 | 0.00 | 0.00 | 72 | 1008.0 |
| 20260508201802 | 68 | 312 | 5.0 | 11.0 | 0.00 | 0.00 | 0.00 | 73 | 1008.0 |
| 20260508201302 | 68 | 345 | 4.0 | 6.0 | 0.00 | 0.00 | 0.00 | 72 | 1008.0 |
| 20260508200802 | 69 | 324 | 4.0 | 6.0 | 0.00 | 0.00 | 0.00 | 71 | 1007.9 |
| 20260508195802 | 68 | 7 | 4.0 | 6.0 | 0.00 | 0.00 | 0.00 | 72 | 1007.6 |
| 20260508195305 | 68 | 348 | 2.0 | 5.0 | 0.00 | 0.00 | 0.00 | 74 | 1007.8 |
| 20260508194802 | 68 | 0 | 3.0 | 5.0 | 0.00 | 0.00 | 0.00 | 74 | 1008.0 |
| 20260508194303 | 68 | 258 | 2.0 | 5.0 | 0.00 | 0.00 | 0.00 | 74 | 1008.2 |
| 20260508193303 | 68 | 290 | 3.0 | 5.0 | 0.00 | 0.00 | 0.00 | 74 | 1008.4 |
| 20260508192802 | 68 | 234 | 3.0 | 7.0 | 0.00 | 0.00 | 0.00 | 73 | 1008.5 |
| 20260508192305 | 68 | 235 | 2.0 | 7.0 | 0.00 | 0.00 | 0.00 | 74 | 1008.0 |
| 20260508191802 | 68 | 176 | 3.0 | 9.0 | 0.00 | 0.00 | 0.00 | 72 | 1007.6 |
| 20260508191302 | 68 | 161 | 3.0 | 9.0 | 0.00 | 0.00 | 0.00 | 73 | 1007.3 |
| 20260508190802 | 68 | 148 | 5.0 | 9.0 | 0.00 | 0.00 | 0.00 | 73 | 1007.4 |
| 20260508190302 | 68 | 114 | 2.0 | 5.0 | 0.00 | 0.00 | 0.00 | 70 | 1007.3 |
| 20260508185802 | 69 | 94 | 3.0 | 5.0 | 0.00 | 0.00 | 0.00 | 72 | 1007.3 |
| 20260508185306 | 69 | 183 | 2.0 | 6.0 | 0.00 | 0.00 | 0.00 | 72 | 1007.7 |
| 20260508184802 | 69 | 199 | 4.0 | 6.0 | 0.00 | 0.00 | 0.00 | 71 | 1008.0 |
| 20260508184302 | 69 | 168 | 2.0 | 6.0 | 0.00 | 0.00 | 0.00 | 70 | 1008.1 |
| 20260508183803 | 69 | 207 | 4.0 | 6.0 | 0.00 | 0.00 | 0.00 | 69 | 1008.5 |
| 20260508183302 | 69 | 186 | 2.0 | 6.0 | 0.00 | 0.00 | 0.00 | 71 | 1008.6 |
| 20260508182803 | 69 | 175 | 2.0 | 6.0 | 0.00 | 0.00 | 0.00 | 69 | 1008.7 |
| 20260508182306 | 69 | 251 | 4.0 | 9.0 | 0.00 | 0.00 | 0.00 | 70 | 1008.5 |
| 20260508181803 | 69 | 235 | 2.0 | 9.0 | 0.00 | 0.00 | 0.00 | 69 | 1008.6 |
| 20260508180802 | 68 | 186 | 2.0 | 5.0 | 0.00 | 0.00 | 0.00 | 71 | 1008.8 |
| 20260508174802 | 69 | 189 | 5.0 | 7.0 | 0.00 | 0.00 | 0.00 | 68 | 1008.7 |
| 20260508174302 | 69 | 212 | 3.0 | 12.0 | 0.00 | 0.00 | 0.00 | 68 | 1008.7 |
| 20260508173803 | 69 | 192 | 5.0 | 12.0 | 0.00 | 0.00 | 0.00 | 69 | 1008.7 |
| 20260508173302 | 69 | 155 | 6.0 | 10.0 | 0.00 | 0.00 | 0.00 | 69 | 1008.9 |
| 20260508172802 | 68 | 221 | 4.0 | 9.0 | 0.00 | 0.00 | 0.00 | 69 | 1008.9 |
| 20260508172306 | 68 | 197 | 4.0 | 7.0 | 0.00 | 0.00 | 0.00 | 69 | 1008.9 |
| 20260508171802 | 68 | 180 | 3.0 | 7.0 | 0.00 | 0.00 | 0.00 | 69 | 1008.9 |
| 20260508171303 | 68 | 168 | 3.0 | 9.0 | 0.00 | 0.00 | 0.00 | 70 | 1009.1 |
| 20260508170325 | 68 | 195 | 4.0 | 11.0 | 0.00 | 0.00 | 0.00 | 70 | 1008.9 |
| 20260508165306 | 66 | 148 | 4.0 | 9.0 | 0.00 | 0.00 | 0.00 | 72 | 1008.8 |
| 20260508164801 | 66 | 120 | 4.0 | 9.0 | 0.00 | 0.00 | 0.00 | 74 | 1008.9 |
| 20260508164302 | 65 | 178 | 2.0 | 5.0 | 0.00 | 0.00 | 0.00 | 74 | 1009.0 |
| 20260508163302 | 64 | 154 | 2.0 | 6.0 | 0.00 | 0.00 | 0.00 | 74 | 1009.1 |
| 20260508162300 | 63 | 162 | 2.0 | 4.0 | 0.00 | 0.00 | 0.00 | 76 | 1009.1 |
| 20260508161800 | 63 | 138 | 2.0 | 10.0 | 0.00 | 0.00 | 0.00 | 74 | 1009.1 |
| 20260508160800 | 63 | 202 | 2.0 | 5.0 | 0.00 | 0.00 | 0.00 | 75 | 1009.2 |
| 20260508160258 | 63 | 169 | 2.0 | 4.0 | 0.00 | 0.00 | 0.00 | 75 | 1009.4 |
| 20260508155255 | 63 | 223 | 3.0 | 5.0 | 0.00 | 0.00 | 0.00 | 74 | 1009.6 |
| 20260508154757 | 62 | 238 | 1.0 | 4.0 | 0.00 | 0.00 | 0.00 | 75 | 1009.6 |
| 20260508154253 | 62 | 190 | 1.0 | 7.0 | 0.00 | 0.00 | 0.00 | 75 | 1009.6 |
| 20260508153755 | 62 | 230 | 1.0 | 7.0 | 0.00 | 0.00 | 0.00 | 73 | 1009.5 |
| 20260508151752 | 62 | 189 | 3.0 | 9.0 | 0.00 | 0.00 | 0.00 | 76 | 1009.3 |
| 20260508151252 | 61 | 188 | 4.0 | 9.0 | 0.00 | 0.00 | 0.00 | 76 | 1009.2 |
| 20260508150754 | 61 | 178 | 2.0 | 9.0 | 0.00 | 0.00 | 0.00 | 76 | 1009.3 |
| 20260508145734 | 60 | 227 | 4.0 | 10.0 | 0.00 | 0.00 | 0.00 | 77 | 1009.2 |
| 20260508145235 | 60 | 171 | 2.0 | 10.0 | 0.00 | 0.00 | 0.00 | 77 | 1009.3 |
| 20260508144735 | 60 | 210 | 4.0 | 10.0 | 0.00 | 0.00 | 0.00 | 77 | 1009.3 |
| 20260508143735 | 59 | 227 | 2.0 | 9.0 | 0.00 | 0.00 | 0.00 | 76 | 1009.4 |
| 20260508143230 | 59 | 190 | 4.0 | 7.0 | 0.00 | 0.00 | 0.00 | 77 | 1009.5 |
| 20260508142231 | 59 | 175 | 5.0 | 11.0 | 0.00 | 0.00 | 0.00 | 75 | 1009.5 |
| 20260508141731 | 59 | 202 | 4.0 | 11.0 | 0.00 | 0.00 | 0.00 | 75 | 1009.5 |
| 20260508141232 | 59 | 195 | 5.0 | 11.0 | 0.00 | 0.00 | 0.00 | 75 | 1009.5 |
| 20260508140730 | 58 | 154 | 3.0 | 9.0 | 0.00 | 0.00 | 0.00 | 76 | 1009.6 |
| 20260508135727 | 58 | 209 | 4.0 | 7.0 | 0.00 | 0.00 | 0.00 | 75 | 1009.7 |
| 20260508135228 | 58 | 158 | 2.0 | 7.0 | 0.00 | 0.00 | 0.00 | 77 | 1009.6 |
| 20260508134725 | 58 | 159 | 5.0 | 7.0 | 0.00 | 0.00 | 0.00 | 77 | 1009.6 |
| 20260508134226 | 58 | 189 | 3.0 | 9.0 | 0.00 | 0.00 | 0.00 | 76 | 1009.6 |
| 20260508133727 | 57 | 155 | 3.0 | 9.0 | 0.00 | 0.00 | 0.00 | 76 | 1009.6 |
| 20260508132725 | 57 | 199 | 4.0 | 9.0 | 0.00 | 0.00 | 0.00 | 76 | 1009.5 |
| 20260508132223 | 57 | 193 | 3.0 | 9.0 | 0.00 | 0.00 | 0.00 | 77 | 1009.3 |
| 20260508131720 | 57 | 144 | 4.0 | 10.0 | 0.00 | 0.00 | 0.00 | 76 | 1009.2 |
| 20260508131221 | 56 | 224 | 4.0 | 10.0 | 0.00 | 0.00 | 0.00 | 77 | 1009.3 |
| 20260508130721 | 56 | 223 | 5.0 | 12.0 | 0.00 | 0.00 | 0.00 | 77 | 1009.2 |
| 20260508130219 | 56 | 179 | 6.0 | 12.0 | 0.00 | 0.00 | 0.00 | 77 | 1009.3 |
| 20260508125719 | 56 | 183 | 5.0 | 10.0 | 0.00 | 0.00 | 0.00 | 78 | 1009.2 |
| 20260508125220 | 56 | 179 | 4.0 | 10.0 | 0.00 | 0.00 | 0.00 | 77 | 1009.2 |
| 20260508124717 | 56 | 140 | 5.0 | 10.0 | 0.00 | 0.00 | 0.00 | 77 | 1009.2 |
| 20260508124217 | 56 | 197 | 5.0 | 10.0 | 0.00 | 0.00 | 0.00 | 77 | 1009.3 |
| 20260508123717 | 55 | 186 | 5.0 | 10.0 | 0.00 | 0.00 | 0.00 | 77 | 1009.3 |
| 20260508123214 | 55 | 203 | 5.0 | 12.0 | 0.00 | 0.00 | 0.00 | 77 | 1009.4 |
| 20260508122714 | 55 | 197 | 4.0 | 12.0 | 0.00 | 0.00 | 0.00 | 78 | 1009.3 |
| 20260508122215 | 55 | 190 | 4.0 | 10.0 | 0.00 | 0.00 | 0.00 | 78 | 1009.1 |
| 20260508121716 | 55 | 189 | 4.0 | 10.0 | 0.00 | 0.00 | 0.00 | 78 | 1009.2 |
| 20260508121217 | 55 | 159 | 4.0 | 9.0 | 0.00 | 0.00 | 0.00 | 78 | 1009.1 |
| 20260508120713 | 55 | 178 | 5.0 | 10.0 | 0.00 | 0.00 | 0.00 | 78 | 1009.0 |
| 20260508120211 | 55 | 180 | 4.0 | 10.0 | 0.00 | 0.00 | 0.00 | 78 | 1009.1 |
| 20260508115710 | 55 | 217 | 4.0 | 10.0 | 0.00 | 0.00 | 0.00 | 78 | 1009.1 |
| 20260508115211 | 55 | 190 | 4.0 | 10.0 | 0.00 | 0.00 | 0.00 | 77 | 1009.1 |
| 20260508114208 | 55 | 188 | 4.0 | 9.0 | 0.00 | 0.00 | 0.00 | 78 | 1009.2 |
| 20260508113207 | 55 | 203 | 4.0 | 11.0 | 0.00 | 0.00 | 0.00 | 77 | 1009.0 |
| 20260508112706 | 55 | 199 | 4.0 | 11.0 | 0.00 | 0.00 | 0.00 | 78 | 1008.9 |
| 20260508112207 | 55 | 169 | 5.0 | 10.0 | 0.00 | 0.00 | 0.00 | 78 | 1009.0 |
| 20260508111705 | 55 | 175 | 4.0 | 10.0 | 0.00 | 0.00 | 0.00 | 78 | 1009.0 |
| 20260508110705 | 55 | 192 | 4.0 | 9.0 | 0.00 | 0.00 | 0.00 | 77 | 1009.0 |
| 20260508110206 | 55 | 220 | 4.0 | 9.0 | 0.00 | 0.00 | 0.00 | 77 | 1009.2 |
| 20260508105705 | 55 | 238 | 2.0 | 6.0 | 0.00 | 0.00 | 0.00 | 76 | 1009.5 |
| 20260508105203 | 55 | 217 | 3.0 | 6.0 | 0.00 | 0.00 | 0.00 | 77 | 1009.2 |
| 20260508104203 | 55 | 219 | 3.0 | 7.0 | 0.00 | 0.00 | 0.00 | 77 | 1008.9 |
| 20260508103704 | 55 | 185 | 3.0 | 7.0 | 0.00 | 0.00 | 0.00 | 77 | 1008.9 |
| 20260508103203 | 55 | 226 | 3.0 | 7.0 | 0.00 | 0.00 | 0.00 | 77 | 1008.9 |
| 20260508102701 | 55 | 197 | 4.0 | 11.0 | 0.00 | 0.00 | 0.00 | 76 | 1009.0 |
| 20260508102202 | 55 | 173 | 2.0 | 11.0 | 0.00 | 0.00 | 0.00 | 76 | 1009.1 |
| 20260508101701 | 55 | 223 | 4.0 | 9.0 | 0.00 | 0.00 | 0.00 | 77 | 1008.8 |
| 20260508101202 | 55 | 190 | 3.0 | 9.0 | 0.00 | 0.00 | 0.00 | 76 | 1008.9 |
| 20260508100703 | 55 | 219 | 3.0 | 9.0 | 0.00 | 0.00 | 0.00 | 77 | 1008.9 |
| 20260508100203 | 55 | 213 | 4.0 | 11.0 | 0.00 | 0.00 | 0.00 | 77 | 1008.9 |
| 20260508095202 | 55 | 186 | 4.0 | 9.0 | 0.00 | 0.00 | 0.00 | 77 | 1008.9 |
| 20260508094702 | 55 | 197 | 3.0 | 10.0 | 0.00 | 0.00 | 0.00 | 78 | 1008.9 |
| 20260508094202 | 54 | 195 | 4.0 | 10.0 | 0.00 | 0.00 | 0.00 | 78 | 1008.8 |
| 20260508093202 | 54 | 192 | 3.0 | 6.0 | 0.00 | 0.00 | 0.00 | 78 | 1008.8 |
| 20260508092702 | 54 | 165 | 3.0 | 9.0 | 0.00 | 0.00 | 0.00 | 79 | 1008.7 |
| 20260508092203 | 54 | 230 | 3.0 | 9.0 | 0.00 | 0.00 | 0.00 | 80 | 1008.7 |
| 20260508091702 | 54 | 199 | 2.0 | 5.0 | 0.00 | 0.00 | 0.00 | 79 | 1008.7 |
| 20260508091201 | 54 | 145 | 2.0 | 4.0 | 0.00 | 0.00 | 0.00 | 80 | 1008.8 |
| 20260508090702 | 54 | 186 | 2.0 | 4.0 | 0.00 | 0.00 | 0.00 | 80 | 1008.8 |
| 20260508090202 | 54 | 140 | 1.0 | 4.0 | 0.00 | 0.00 | 0.00 | 80 | 1008.7 |
| 20260508085701 | 54 | 178 | 2.0 | 5.0 | 0.00 | 0.00 | 0.00 | 79 | 1008.8 |
| 20260508085202 | 54 | 172 | 2.0 | 5.0 | 0.00 | 0.00 | 0.00 | 80 | 1008.8 |
| 20260508084702 | 54 | 166 | 1.0 | 7.0 | 0.00 | 0.00 | 0.00 | 80 | 1008.9 |
| 20260508084203 | 54 | 185 | 2.0 | 7.0 | 0.00 | 0.00 | 0.00 | 80 | 1008.8 |
| 20260508083703 | 54 | 175 | 3.0 | 6.0 | 0.00 | 0.00 | 0.00 | 80 | 1008.8 |
| 20260508083202 | 54 | 188 | 2.0 | 5.0 | 0.00 | 0.00 | 0.00 | 81 | 1008.9 |
| 20260508082203 | 54 | 182 | 2.0 | 4.0 | 0.00 | 0.00 | 0.00 | 80 | 1009.0 |
| 20260508081702 | 54 | 182 | 1.0 | 4.0 | 0.00 | 0.00 | 0.00 | 81 | 1009.0 |
| 20260508081202 | 54 | 166 | 1.0 | 5.0 | 0.00 | 0.00 | 0.00 | 80 | 1009.0 |
| 20260508080702 | 54 | 185 | 1.0 | 5.0 | 0.00 | 0.00 | 0.00 | 80 | 1009.1 |
| 20260508075702 | 54 | 180 | 2.0 | 6.0 | 0.00 | 0.00 | 0.00 | 81 | 1009.2 |
| 20260508075203 | 53 | 175 | 2.0 | 6.0 | 0.00 | 0.00 | 0.00 | 81 | 1009.3 |
| 20260508074702 | 53 | 180 | 3.0 | 5.0 | 0.00 | 0.00 | 0.00 | 82 | 1009.4 |
| 20260508074202 | 53 | 199 | 2.0 | 4.0 | 0.00 | 0.00 | 0.00 | 82 | 1009.4 |
| 20260508073702 | 53 | 178 | 2.0 | 5.0 | 0.00 | 0.00 | 0.00 | 82 | 1009.5 |
| 20260508073202 | 53 | 171 | 3.0 | 5.0 | 0.00 | 0.00 | 0.00 | 83 | 1009.6 |
| 20260508072202 | 53 | 166 | 3.0 | 5.0 | 0.00 | 0.00 | 0.00 | 82 | 1009.7 |
| 20260508071702 | 53 | 172 | 2.0 | 6.0 | 0.00 | 0.00 | 0.00 | 83 | 1009.9 |
| 20260508070702 | 53 | 175 | 2.0 | 7.0 | 0.00 | 0.00 | 0.00 | 83 | 1010.0 |
| 20260508070202 | 53 | 164 | 2.0 | 7.0 | 0.00 | 0.00 | 0.00 | 83 | 1010.0 |
| 20260508065201 | 53 | 172 | 0.0 | 4.0 | 0.00 | 0.00 | 0.00 | 82 | 1010.2 |
| 20260508064702 | 53 | 178 | 1.0 | 3.0 | 0.00 | 0.00 | 0.00 | 83 | 1010.2 |
| 20260508064203 | 53 | 178 | 0.0 | 3.0 | 0.00 | 0.00 | 0.00 | 83 | 1010.2 |
| 20260508063702 | 53 | 219 | 1.0 | 2.0 | 0.00 | 0.00 | 0.00 | 82 | 1010.3 |
| 20260508063202 | 53 | 219 | 0.0 | 2.0 | 0.00 | 0.00 | 0.00 | 83 | 1010.4 |
| 20260508062702 | 53 | 219 | 0.0 | 2.0 | 0.00 | 0.00 | 0.00 | 83 | 1010.5 |
| 20260508062203 | 53 | 219 | 0.0 | 0.0 | 0.00 | 0.00 | 0.00 | 83 | 1010.8 |
| 20260508061702 | 53 | 219 | 0.0 | 1.0 | 0.00 | 0.00 | 0.00 | 82 | 1010.8 |
| 20260508061202 | 53 | 219 | 0.0 | 2.0 | 0.00 | 0.00 | 0.00 | 83 | 1010.6 |
| 20260508060702 | 52 | 219 | 0.0 | 2.0 | 0.00 | 0.00 | 0.00 | 82 | 1010.6 |
| 20260508060202 | 52 | 219 | 1.0 | 2.0 | 0.00 | 0.00 | 0.00 | 82 | 1010.8 |
| 20260508055703 | 52 | 200 | 1.0 | 5.0 | 0.00 | 0.00 | 0.00 | 83 | 1010.6 |
| 20260508055203 | 52 | 185 | 0.0 | 5.0 | 0.00 | 0.00 | 0.00 | 82 | 1010.6 |
| 20260508054201 | 52 | 178 | 2.0 | 3.0 | 0.00 | 0.00 | 0.00 | 81 | 1010.4 |
| 20260508053703 | 52 | 176 | 1.0 | 4.0 | 0.00 | 0.00 | 0.00 | 81 | 1010.4 |
| 20260508052702 | 53 | 197 | 2.0 | 5.0 | 0.00 | 0.00 | 0.00 | 80 | 1010.4 |
| 20260508052202 | 53 | 158 | 1.0 | 5.0 | 0.00 | 0.00 | 0.00 | 79 | 1010.4 |
| 20260508051202 | 53 | 169 | 2.0 | 4.0 | 0.00 | 0.00 | 0.00 | 78 | 1010.5 |
| 20260508050202 | 54 | 179 | 3.0 | 5.0 | 0.00 | 0.00 | 0.00 | 78 | 1010.6 |
| 20260508045702 | 54 | 179 | 3.0 | 5.0 | 0.00 | 0.00 | 0.00 | 77 | 1010.5 |
| 20260508045202 | 54 | 165 | 2.0 | 4.0 | 0.00 | 0.00 | 0.00 | 77 | 1010.5 |
| 20260508044702 | 55 | 162 | 2.0 | 5.0 | 0.00 | 0.00 | 0.00 | 77 | 1010.4 |
| 20260508044202 | 55 | 171 | 3.0 | 5.0 | 0.00 | 0.00 | 0.00 | 75 | 1010.6 |
| 20260508043702 | 55 | 183 | 3.0 | 5.0 | 0.00 | 0.00 | 0.00 | 75 | 1010.6 |
| 20260508042702 | 56 | 193 | 3.0 | 5.0 | 0.00 | 0.00 | 0.00 | 75 | 1010.8 |
| 20260508041702 | 56 | 162 | 4.0 | 9.0 | 0.00 | 0.00 | 0.00 | 74 | 1010.8 |
| 20260508041203 | 56 | 171 | 3.0 | 9.0 | 0.00 | 0.00 | 0.00 | 73 | 1010.8 |
| 20260508040203 | 57 | 173 | 3.0 | 9.0 | 0.00 | 0.00 | 0.00 | 72 | 1010.6 |
| 20260508035703 | 57 | 190 | 4.0 | 10.0 | 0.00 | 0.00 | 0.00 | 72 | 1010.6 |
| 20260508035202 | 57 | 202 | 4.0 | 10.0 | 0.00 | 0.00 | 0.00 | 72 | 1010.6 |
| 20260508034203 | 57 | 171 | 4.0 | 9.0 | 0.00 | 0.00 | 0.00 | 71 | 1010.8 |
| 20260508033702 | 58 | 172 | 4.0 | 11.0 | 0.00 | 0.00 | 0.00 | 71 | 1010.8 |
| 20260508033201 | 58 | 189 | 4.0 | 11.0 | 0.00 | 0.00 | 0.00 | 70 | 1010.6 |
| 20260508032702 | 58 | 168 | 4.0 | 7.0 | 0.00 | 0.00 | 0.00 | 70 | 1010.6 |
| 20260508032202 | 58 | 188 | 3.0 | 6.0 | 0.00 | 0.00 | 0.00 | 69 | 1010.6 |